Back to catalog

STARLINK-4623

AliveCommunicationsVLEO
NORAD 55315·PAYLOAD·🇺🇸 United States

Launched Jan 19, 2023 from Vandenberg Space Force Base

Loading…

Next Passes (next 24 hours)

TLE

FreshSource: CelesTrak SupGP

Epoch: Sep 14, 2026, 13:27 UTC

1 55315C 23010AY  26257.56090278 -.00013260  00000+0 -11114-2 0  2574
2 55315  69.9996 268.2516 0003849 272.7980 316.1945 14.98331823    10

Track STARLINK-4623 in real time with AllMySat

Download on the App Store